Terminal Aerodrome Forecast
Issued by NWS

Home | Current Version | Previous Version | Text Only | Print | Product List | Glossary On
Versions: 1 2 3 4 5 6 7 8 9 10 11 12 13 14 15 16 17 18 19
000
FTUS42 KMHX 222000 AAA
TAFISO
TAF AMD
KISO 222016Z 2220/2318 06006KT P6SM VCSH SCT015 BKN035
      TEMPO 2220/2221 2SM +RA SCT005 BKN010
     FM230000 18003KT P6SM SCT025 OVC120
     FM230700 20003KT 3SM BR SCT007
     FM231300 22006KT P6SM SCT025
      AMD LTD TO CLD VIS AND WIND=

USA.gov is the U.S. government's official web portal to all federal, state and local government web resources and services.